Wind_Speed
38 39 42 44 41 37 35 37 34 33 32 30 29 31 34 35 35 35 36 36 34 33 31 29 27 25 23 21 18 16 13 9 7 6 5 5 6 4 3 1 2 2 3 4 4
40 40 42 44 44 42 40 39 39 37 31 31 31 31 32 34 35 36 36 37 36 34 32 30 28 26 24 22 18 15 13 10 7 7 6 5 5 4 2 2 3 1 4 2 2
41 42 42 43 44 45 39 43 39 35 33 31 32 33 33 33 36 34 36 38 37 36 34 32 29 28 25 22 19 18 16 12 11 11 10 9 9 7 4 3 5 5 4 4 1
44 43 44 44 46 44 48 45 38 37 33 37 32 30 30 32 33 34 35 36 37 36 35 33 31 29 27 24 22 20 19 16 16 15 14 13 13 10 9 6 6 7 8 5 4
46 44 44 45 46 45 46 50 36 41 38 37 38 32 32 32 33 33 34 35 36 35 34 33 33 31 29 26 24 23 23 20 19 19 18 17 16 13 15 11 8 8 9 7 6
48 45 46 46 47 48 48 46 45 43 42 39 36 36 33 32 33 34 34 35 34 32 33 32 32 31 31 29 27 27 25 24 24 23 22 21 19 17 22 13 11 12 10 11 10
44 45 45 46 45 49 52 53 51 44 47 42 40 40 36 34 33 33 33 34 33 32 32 33 33 31 31 31 29 29 28 27 26 26 26 25 23 22 23 19 17 14 12 11 13
44 42 47 47 46 48 51 51 55 52 49 47 40 40 38 37 36 34 33 33 33 32 33 32 32 32 32 31 31 30 29 28 27 28 27 26 24 25 26 23 21 17 15 14 14
44 39 39 43 49 49 49 50 52 55 53 51 46 42 40 39 38 36 34 34 32 32 32 32 31 31 32 30 30 30 29 29 30 29 28 27 25 29 28 26 24 21 18 17 18
41 38 41 36 49 54 50 52 53 54 55 55 52 49 44 42 40 39 36 35 33 32 32 32 32 31 31 30 27 29 32 31 30 29 28 28 26 29 28 27 26 24 21 21 20
46 46 37 39 38 53 54 50 53 55 58 57 55 48 48 47 44 42 39 35 34 33 32 32 32 30 29 31 35 34 32 31 31 31 31 30 28 29 31 28 28 26 26 25 22
49 46 43 42 42 37 58 52 51 54 57 62 58 55 53 49 47 44 42 40 36 33 32 32 32 32 33 33 34 33 32 31 32 33 31 31 29 29 31 28 27 28 28 28 27
49 48 45 43 41 37 37 53 50 52 57 59 59 56 55 53 51 47 45 43 41 39 37 35 34 34 33 34 34 34 33 32 33 33 32 31 28 29 30 28 29 28 28 30 30
55 50 50 46 41 38 34 44 47 47 54 58 58 58 57 55 53 50 48 48 45 42 41 39 38 35 34 34 34 34 34 35 35 35 34 32 31 26 28 29 29 29 30 31 31
44 53 56 53 45 42 40 40 48 55 52 51 56 57 56 57 53 52 51 50 47 45 44 42 40 38 36 36 37 35 36 37 36 37 36 34 37 28 27 30 29 31 31 30 32
43 45 42 50 53 46 44 43 44 46 52 57 53 54 56 57 56 53 52 51 49 49 48 47 45 44 42 42 41 40 38 38 38 38 38 36 37 38 31 31 32 32 34 34 34
50 48 47 46 49 50 48 46 51 49 44 47 50 53 49 51 53 52 52 52 53 52 52 51 50 48 47 45 45 45 44 43 43 42 40 41 40 42 39 35 36 35 36 37 37
52 50 42 43 50 50 44 51 56 51 48 46 48 48 45 44 47 49 49 51 52 53 53 52 52 50 49 49 47 46 46 45 47 47 45 46 44 42 45 42 39 40 41 42 43
47 48 46 42 42 35 41 50 53 58 53 49 51 49 51 50 51 47 47 48 48 48 49 50 52 52 52 52 52 52 52 47 49 51 52 50 48 46 47 48 47 45 47 48 48
54 53 49 46 50 46 45 45 42 45 46 49 48 50 45 46 45 46 46 46 45 46 48 49 51 51 49 49 51 52 49 49 50 52 54 54 52 50 47 49 50 50 49 49 51
60 60 55 51 53 54 58 48 51 44 38 44 48 47 50 50 49 48 48 48 48 47 48 48 48 49 48 50 49 49 49 48 48 49 51 52 50 49 48 50 53 53 53 51 51
60 62 57 56 57 56 62 58 57 50 51 41 38 48 48 48 47 49 48 48 47 50 49 49 52 55 53 51 52 52 52 53 53 51 49 49 49 49 48 51 53 53 51 52 52
55 59 56 58 59 59 59 60 58 57 51 42 44 47 49 51 52 51 46 43 44 48 47 45 48 50 52 52 53 53 52 52 50 48 46 45 44 40 41 43 42 43 46 49 51
49 52 55 58 59 57 58 56 64 62 61 55 47 49 52 51 51 50 45 43 43 44 47 46 44 43 46 47 48 48 45 46 47 49 46 44 40 41 45 46 44 48 52 52 53
50 51 51 53 56 56 57 57 57 59 55 58 54 49 51 43 45 52 54 54 51 53 53 52 51 50 52 53 53 52 51 51 51 53 54 52 50 46 48 53 55 56 57 57 58
48 50 50 51 51 53 55 57 53 55 56 56 59 60 54 53 53 47 48 48 52 54 56 58 57 59 60 59 56 55 55 58 61 63 65 64 65 58 58 61 62 64 66 67 66
48 49 49 51 49 50 48 49 50 49 52 57 59 64 70 67 63 59 55 54 56 57 56 57 58 55 53 58 60 62 60 61 60 62 60 64 63 65 66 67 66 65 64 66 68
Wind_Direction
203 199 195 188 185 187 189 192 191 189 191 195 190 184 187 192 186 183 181 183 183 180 180 180 180 178 181 181 184 186 183 183 187 183 183 160 145 139 154 104 64 9 16 33 35
204 202 199 197 190 189 193 190 193 184 185 186 194 191 187 189 191 189 186 187 187 187 187 187 186 186 189 191 194 199 198 196 196 212 214 213 198 172 167 198 238 246 306 359 14
204 205 199 198 193 192 195 189 191 187 196 192 190 189 190 190 195 194 193 193 193 192 192 193 195 195 200 201 204 210 212 213 214 213 225 225 235 208 215 227 242 256 265 293 309
204 206 203 201 198 194 199 190 191 188 196 195 194 195 191 190 194 195 197 199 200 197 196 199 203 205 208 210 213 220 227 226 228 229 234 231 231 237 230 227 256 253 267 266 271
205 205 205 204 201 201 196 194 200 201 207 203 197 199 200 197 197 196 198 201 203 203 203 205 207 210 215 219 225 228 234 233 236 241 239 237 236 230 238 227 240 253 263 269 249
205 204 206 206 204 206 207 200 202 200 203 204 201 206 204 203 201 202 201 201 205 203 207 209 213 214 218 222 227 230 233 236 238 243 245 242 240 235 242 231 227 245 238 256 251
201 206 207 207 210 207 204 205 206 204 204 208 206 206 205 209 207 207 206 206 208 207 210 211 215 218 221 225 228 234 237 241 241 243 245 244 241 234 246 240 237 231 242 238 252
202 206 209 211 214 214 211 206 205 205 208 216 216 211 208 208 211 209 209 210 212 213 214 216 218 221 225 227 230 235 240 241 243 246 243 245 244 240 243 241 244 237 238 242 242
203 210 212 216 214 216 214 213 209 209 208 212 218 220 215 213 212 212 212 214 214 215 218 220 220 221 225 228 230 235 239 241 242 246 248 246 242 244 242 244 245 245 242 244 243
209 212 210 215 217 214 218 213 214 212 209 213 211 224 222 219 218 217 216 216 218 219 221 224 224 226 229 232 236 238 238 239 242 247 250 250 244 248 248 245 245 248 246 245 245
213 211 215 214 216 215 215 217 215 216 213 213 214 219 224 222 221 221 222 222 223 223 225 228 229 231 234 233 234 235 238 240 241 245 247 249 244 244 248 245 245 244 245 246 249
215 216 221 217 220 222 216 219 216 218 219 217 223 222 225 226 224 223 224 228 229 229 228 230 233 233 234 238 240 242 240 244 246 246 248 247 245 244 247 246 244 244 247 247 246
223 217 220 221 219 220 226 222 221 221 221 219 221 223 224 224 226 225 226 228 229 230 231 231 232 236 236 239 243 245 246 246 247 249 248 249 244 242 246 249 248 245 244 247 250
219 211 221 219 219 219 227 222 219 221 224 224 223 223 224 225 226 227 227 229 230 233 234 235 235 236 240 241 243 246 248 250 250 250 251 253 250 241 242 247 245 242 243 247 252
206 213 217 219 220 220 229 230 220 223 229 225 226 225 224 226 226 228 230 232 232 235 237 240 240 240 242 243 245 244 246 248 250 253 252 251 258 244 242 245 248 249 248 249 251
211 216 215 220 217 217 222 230 228 225 227 226 227 226 228 227 226 228 229 231 232 235 237 239 240 241 240 242 244 245 246 249 250 251 252 253 256 258 251 249 246 248 252 251 250
196 205 213 218 217 217 223 228 225 225 229 228 228 230 229 230 232 230 232 233 234 235 237 240 241 241 243 243 245 247 247 248 251 251 254 253 253 259 262 256 256 253 251 250 252
201 203 199 213 220 217 218 219 227 230 231 232 227 227 228 228 230 230 231 235 237 237 237 237 240 242 243 245 246 246 246 247 249 251 252 253 255 255 262 261 256 258 260 256 252
218 206 194 200 206 203 208 215 221 225 230 231 230 229 234 235 234 231 232 234 236 237 240 242 241 240 241 241 241 242 244 247 249 251 251 252 255 258 260 265 265 260 257 261 261
224 220 214 200 184 192 198 201 205 212 223 226 228 227 229 229 231 232 232 233 235 237 237 239 240 240 239 239 241 243 243 244 246 249 251 252 251 254 260 264 266 268 265 263 263
228 230 228 220 208 203 193 205 211 213 211 224 225 227 228 228 228 231 233 236 235 233 234 236 238 239 239 241 241 243 244 246 248 248 252 253 253 255 258 260 264 266 268 268 266
225 230 227 227 224 216 200 205 206 211 207 214 220 228 231 230 235 233 233 234 236 235 238 241 242 243 244 245 246 245 245 247 246 248 250 253 251 259 262 265 265 267 268 272 274
223 226 229 228 227 224 220 224 219 218 213 212 223 220 224 225 229 229 230 235 237 235 234 234 236 240 242 243 243 245 245 246 248 246 245 247 251 252 260 268 270 271 269 268 268
224 224 225 227 226 226 228 228 231 228 229 218 228 227 228 230 231 233 231 232 235 239 236 234 235 238 243 246 245 245 243 242 243 244 245 247 245 255 263 267 268 264 265 266 269
221 225 225 226 227 226 228 229 229 228 229 234 222 229 226 219 227 236 238 239 236 236 237 240 241 244 245 246 247 248 247 247 249 253 256 256 254 256 260 262 263 267 270 269 269
222 223 225 227 228 227 226 228 229 229 229 227 229 221 224 224 217 214 231 236 246 247 244 243 244 247 248 247 248 249 251 253 254 257 262 264 263 265 264 265 266 268 268 267 268
223 224 223 226 226 228 228 229 230 231 229 228 228 226 226 226 224 223 223 229 235 238 239 242 245 241 246 249 252 253 255 260 262 263 265 265 267 263 265 266 267 267 268 268 267
Height
5727 5733 5739 5743 5747 5754 5759 5765 5771 5776 5782 5786 5791 5795 5801 5807 5811 5815 5818 5826 5830 5832 5837 5841 5845 5848 5851 5854 5857 5859 5863 5863 5866 5866 5866 5867 5868 5868 5869 5870 5871 5871 5872 5872 5872
5722 5729 5734 5740 5744 5749 5756 5761 5769 5773 5778 5783 5788 5793 5797 5802 5809 5813 5817 5823 5827 5831 5835 5839 5843 5845 5849 5853 5855 5858 5860 5863 5865 5865 5866 5867 5868 5868 5870 5870 5871 5870 5871 5872 5871
5716 5723 5729 5735 5741 5745 5752 5758 5764 5769 5775 5780 5786 5791 5796 5800 5806 5810 5814 5820 5825 5829 5832 5837 5841 5844 5848 5850 5853 5857 5858 5860 5863 5864 5864 5866 5867 5868 5869 5869 5871 5871 5870 5871 5871
5709 5717 5724 5730 5737 5743 5747 5755 5760 5766 5772 5776 5782 5786 5791 5796 5804 5807 5811 5817 5822 5825 5829 5834 5839 5842 5845 5847 5851 5854 5855 5858 5859 5862 5863 5864 5865 5865 5867 5869 5869 5871 5871 5870 5870
5703 5711 5719 5725 5731 5738 5742 5749 5755 5761 5768 5773 5776 5783 5789 5794 5798 5803 5808 5813 5818 5822 5826 5831 5835 5839 5842 5845 5848 5850 5852 5855 5856 5858 5861 5862 5864 5865 5863 5866 5868 5868 5869 5870 5870
5695 5703 5712 5720 5726 5731 5737 5744 5751 5757 5763 5769 5773 5778 5785 5790 5794 5799 5804 5809 5814 5816 5822 5826 5831 5834 5837 5841 5844 5846 5848 5850 5852 5854 5857 5859 5860 5862 5859 5864 5866 5867 5868 5869 5870
5688 5696 5704 5712 5720 5727 5732 5740 5746 5751 5758 5765 5769 5774 5778 5784 5790 5795 5799 5804 5809 5812 5817 5821 5825 5830 5833 5836 5839 5840 5843 5846 5847 5849 5852 5854 5856 5858 5856 5860 5862 5864 5866 5866 5867
5682 5689 5697 5705 5712 5719 5726 5732 5740 5746 5754 5759 5764 5769 5775 5780 5785 5790 5795 5800 5804 5807 5812 5816 5820 5824 5828 5831 5834 5836 5839 5842 5842 5843 5847 5850 5853 5853 5852 5855 5858 5861 5862 5863 5864
5675 5682 5690 5695 5704 5711 5718 5725 5732 5739 5746 5753 5758 5764 5770 5775 5780 5785 5789 5795 5798 5802 5807 5811 5814 5818 5822 5826 5829 5831 5834 5836 5837 5839 5842 5845 5848 5847 5849 5851 5853 5856 5859 5860 5860
5668 5676 5682 5688 5695 5702 5710 5717 5724 5731 5737 5745 5751 5758 5765 5770 5774 5780 5784 5788 5793 5797 5801 5805 5809 5813 5817 5821 5826 5827 5828 5830 5833 5835 5837 5840 5843 5843 5844 5847 5849 5852 5854 5855 5856
5660 5668 5675 5681 5688 5694 5702 5708 5717 5724 5730 5739 5746 5751 5757 5763 5768 5773 5777 5782 5787 5791 5795 5799 5804 5808 5812 5814 5816 5819 5822 5825 5827 5829 5830 5833 5837 5838 5839 5842 5845 5846 5848 5849 5851
5653 5661 5668 5675 5680 5686 5693 5701 5708 5716 5722 5728 5735 5743 5747 5754 5760 5765 5771 5777 5781 5785 5788 5794 5799 5800 5803 5808 5811 5814 5816 5820 5821 5823 5825 5827 5832 5833 5833 5836 5839 5841 5842 5843 5844
5646 5654 5660 5667 5673 5679 5684 5692 5699 5705 5712 5719 5726 5733 5740 5746 5751 5757 5763 5768 5773 5778 5782 5787 5791 5793 5797 5801 5805 5808 5811 5813 5815 5817 5819 5821 5825 5828 5830 5832 5833 5835 5836 5836 5836
5637 5646 5653 5660 5668 5672 5678 5683 5690 5697 5702 5710 5716 5723 5730 5736 5743 5749 5754 5761 5765 5771 5774 5779 5782 5786 5791 5794 5798 5801 5804 5806 5808 5809 5813 5815 5816 5824 5825 5826 5827 5828 5829 5830 5831
5628 5637 5644 5652 5659 5665 5672 5674 5680 5687 5690 5699 5706 5715 5721 5727 5736 5739 5744 5750 5757 5761 5767 5773 5776 5780 5784 5788 5790 5793 5795 5797 5800 5803 5805 5810 5809 5817 5819 5819 5821 5821 5823 5823 5824
5621 5628 5635 5642 5650 5657 5662 5666 5671 5676 5679 5689 5696 5703 5711 5717 5724 5729 5734 5740 5745 5750 5757 5761 5766 5770 5775 5778 5781 5784 5787 5789 5792 5795 5798 5802 5803 5804 5811 5812 5813 5815 5816 5816 5816
5613 5618 5625 5632 5641 5648 5655 5658 5662 5663 5673 5680 5686 5694 5701 5708 5714 5719 5724 5729 5734 5741 5746 5751 5756 5761 5766 5770 5772 5775 5777 5779 5783 5786 5791 5791 5794 5796 5799 5803 5804 5806 5807 5808 5808
5604 5610 5617 5623 5631 5639 5646 5649 5649 5657 5664 5671 5679 5684 5690 5697 5702 5708 5713 5718 5724 5730 5734 5739 5745 5751 5757 5760 5763 5764 5766 5770 5771 5774 5781 5781 5785 5789 5787 5790 5794 5794 5794 5795 5796
5594 5601 5607 5616 5624 5632 5635 5635 5641 5648 5656 5662 5669 5674 5680 5686 5693 5698 5704 5710 5715 5721 5725 5729 5733 5738 5743 5746 5749 5752 5754 5760 5760 5763 5766 5772 5777 5779 5779 5776 5776 5781 5782 5782 5783
5583 5590 5597 5606 5612 5618 5623 5629 5636 5642 5648 5654 5659 5666 5672 5679 5684 5689 5694 5701 5705 5710 5713 5717 5721 5726 5730 5733 5736 5738 5744 5745 5747 5750 5754 5759 5763 5767 5769 5765 5764 5765 5767 5770 5770
5570 5577 5586 5593 5600 5606 5612 5619 5626 5633 5639 5644 5650 5656 5663 5669 5673 5677 5682 5689 5695 5699 5702 5705 5711 5715 5717 5720 5725 5729 5731 5735 5738 5740 5742 5747 5754 5755 5756 5753 5753 5754 5753 5754 5755
5560 5565 5574 5580 5586 5595 5603 5609 5617 5624 5629 5636 5641 5646 5652 5658 5662 5667 5673 5678 5683 5688 5691 5696 5699 5702 5707 5710 5713 5715 5719 5722 5723 5730 5734 5736 5744 5743 5743 5740 5740 5742 5743 5739 5738
5547 5555 5561 5567 5575 5584 5594 5600 5607 5612 5618 5625 5632 5636 5642 5647 5652 5656 5662 5668 5672 5677 5681 5684 5686 5689 5692 5696 5698 5701 5707 5712 5714 5716 5721 5723 5736 5734 5730 5729 5732 5731 5728 5726 5725
5538 5544 5550 5556 5566 5574 5581 5589 5594 5600 5606 5614 5622 5626 5631 5635 5640 5646 5651 5656 5662 5666 5670 5673 5677 5680 5683 5687 5689 5691 5697 5699 5701 5703 5709 5713 5723 5722 5718 5719 5721 5717 5715 5717 5716
5527 5532 5539 5546 5555 5562 5568 5576 5582 5589 5595 5600 5609 5616 5621 5625 5629 5633 5638 5644 5649 5654 5658 5661 5665 5669 5671 5674 5677 5681 5685 5688 5690 5692 5693 5700 5705 5714 5711 5705 5704 5705 5704 5702 5701
5517 5523 5530 5537 5543 5549 5554 5563 5570 5576 5582 5590 5596 5605 5609 5614 5620 5624 5628 5632 5636 5641 5644 5649 5652 5656 5659 5661 5663 5668 5674 5675 5678 5678 5680 5681 5687 5698 5693 5693 5693 5691 5689 5689 5688
5508 5513 5519 5524 5531 5538 5546 5553 5560 5564 5569 5575 5582 5587 5594 5602 5605 5608 5614 5620 5624 5628 5631 5635 5638 5643 5644 5646 5649 5655 5663 5661 5662 5662 5662 5661 5674 5676 5677 5675 5675 5674 5673 5673 5672